STARLINK-36782

Last updated on Sun Mar 15 2026 00:02:06 GMT+0000 (Coordinated Universal Time)

1 67805U 26032J 26073.48843727 .00193365 00000+0 12611-2 0 9999 2 67805 97.2836 260.2862 0002051 81.7079 278.4419 15.75318748 5547
UTC large
Height (km)
Speed (km/s)
/
Latitude / Longitude
Inclination (degrees)
Orbital Period (minutes)
Azimuth
Elevation
Range (km)
Doppler Factor

Next 0 passes for location: London (51.5072 / 0.1276)

Sorry there are no passes over London.